COSMOS 1562

Satellite information

Favourite Embed

Satellite Type and Status

PAYLOADIN ORBIT

Key statistics

Satellite COSMOS 1562 at a glance.

Uptime

15079

Days in orbit

Revolutions

≈ 12.5

Per day

Orbit

LEO

Low Earth Orbit

Inclination

74.0

Latest

Satellite identification and parameters

Extended collection of information and parameters for COSMOS 1562.

Object identification

Identified? True

Debris? False

Object name: COSMOS 1562

International designator: 1984-052D

Object number (NORAD): 15001

Object ID (CCSDS): 15001

Country: COMMONWEALTH OF INDEPENDENT STATES (CIS)

Current information (Y/N): Y

RCS size: MEDIUM

Orbital parameters

Period: 115.204 minutes

Inclination: 74.0158 deg

SMA: 7842.799 km

Apoapsis: 1476.445 km

Periapsis: 1452.884 km

RAAN: 330.7999 deg

Eccentricy: 0.0015021

Argument of periapsis: 188.0468 deg

Mean anomaly: 281.812 deg

Mean motion: 12.49959975 rev/day

Mean motion (dot): 0.00000009 rev/day2

B* drag term: 0.00016455364 1/REarth

Two-line elements (TLE)

Creation date: Sept. 8, 2025, 6:18 p.m.

Reference frame: TEME

Reference center: EARTH

Epoch: Sept. 8, 2025, 1:51 p.m. UTC

TLE line 0: 0 COSMOS 1562

TLE line 1: 1 15001U 84052D 25251.57722194 .00000009 00000-0 16455-3 0 9991

TLE line 2: 2 15001 74.0158 330.7999 0015021 188.0468 281.8120 12.49959975883593

Live tracking on map

Real-time ground track for satellite COSMOS 1562.

In-orbit conjunctions

A list of the most updated potential collisions computed for object COSMOS 1562.

Target Orbit TCA Probability of collision Miss distance Type
DELTA 1 DEB SSO 2025-08-13 14:31:32 0.0001713419 439.0 (m) DEBRIS

Associated space launch

Military communications satellites

COSMOS 1562 was lifted into orbit during the mission ‘Kosmos-3M | Strela-1M 281-288’, on board a Kosmos-3M space rocket.

The launch took place on May 28, 1984, 9:52 p.m. from 132/2.

For more information about the launch, click the button.

Launch to space Kosmos-3M | Strela-1M 281-288
Kosmos-3M | Strela-1M 281-288

Agency: N/A

Status: Launch Successful

Launch date: May 28, 1984, 9:52 p.m. UTC

Rocket: Kosmos-3M

Launch pad: 132/2

Location: Plesetsk Cosmodrome, Russian Federation

...

Latest news about this satellite

There are no fresh news available about this satellite. Check back as we update our databases every day.


Newsletter sign-up

Weekly statistics, charts and insights to help you stay on top of the space industry.